Weather History for Lambertville, MI

Change the Weather History Date:

Saturday, December 17, 2011

  Actual Average (KTOL) Record (KTOL)
Temperature  
Mean Temperature 30 °F 29 °F  
Max Temperature 31 °F 36 °F 58 °F (1877)
Min Temperature 29 °F 23 °F -8 °F (1951)
Degree Days  
Heating Degree Days 35 36  
Month to date heating degree days 566  
Since 1 July heating degree days 1799  
Cooling Degree Days 0 0  
Month to date cooling degree days 0  
Year to date cooling degree days 793  
Moisture  
Dew Point 24 °F    
Average Humidity 77    
Maximum Humidity 88    
Minimum Humidity 62    
Precipitation  
Precipitation 0.00 in 0.09 in 0.57 in (2001)
Month to date precipitation 1.50  
Year to date precipitation 33.06  
Snow  
Snow 0.00 in 0.20 in - ()
Month to date snowfall 3.5  
Since 1 July snowfall 5.6  
Snow Depth -    
Sea Level Pressure  
Sea Level Pressure 30.25 in    
Wind  
Wind Speed 3 mph (WNW)    
Max Wind Speed 7 mph    
Max Gust Speed -    
Visibility 7 miles    
Events Snow    
T = Trace of Precipitation, MM = Missing Value Source: NWS Daily Summary

Daily Weather History Graph

Daily Weather History Graph

Search for Another Location

Airport:

Trip Planner

Search our weather history database for the weather conditions in past years. The results will help you decide how hot, cold, wet, or windy it might be!

Date:

Astronomy

Dec. 17, 2011 Rise Set
Actual Time 7:55 AM EST 5:05 PM EST
Civil Twilight 7:24 AM EST 5:36 PM EST
Nautical Twilight 6:49 AM EST 6:12 PM EST
Astronomical Twilight 6:15 AM EST 6:45 PM EST
Moon No Moon Rise 12:04 PM EST (12/17)
Length of Visible Light 10h 12m
Length of Day
9h 09m
Waning Gibbous, 54% of the Moon is Illuminated
Dec 17
Waning Gibbous
Dec 17
Last Quarter
Dec 24
New
Jan 1
First Quarter
Jan 9
Full

Hourly Weather History & Observations

Time (EST) Temp. Windchill Dew Point Humidity Pressure Visibility Wind Dir Wind Speed Gust Speed Precip Events Conditions
12:15 AM 31.8 °F 25.4 °F 21.9 °F 67% 30.29 in 10.0 mi North 6.9 mph - N/A   Overcast
12:35 AM 31.8 °F 26.2 °F 21.4 °F 65% 30.29 in 10.0 mi NNW 5.8 mph - N/A   Overcast
1:15 AM 31.5 °F 25.8 °F 20.5 °F 64% 30.28 in 10.0 mi NNW 5.8 mph - N/A   Overcast
1:35 AM 31.5 °F 26.8 °F 19.9 °F 62% 30.28 in 10.0 mi NNW 4.6 mph - N/A   Overcast
2:15 AM 31.1 °F 27.7 °F 20.8 °F 66% 30.28 in 10.0 mi North 3.5 mph - N/A   Overcast
2:35 AM 31.5 °F - 21.2 °F 66% 30.28 in 10.0 mi Calm Calm - N/A   Overcast
2:55 AM 31.6 °F 28.3 °F 20.1 °F 62% 30.29 in 10.0 mi NNW 3.5 mph - N/A   Overcast
3:15 AM 31.6 °F - 20.1 °F 62% 30.28 in 10.0 mi Calm Calm - N/A   Overcast
3:35 AM 31.6 °F 28.3 °F 20.5 °F 63% 30.29 in 10.0 mi NW 3.5 mph - N/A   Overcast
3:55 AM 31.5 °F - 21.2 °F 66% 30.29 in 10.0 mi Calm Calm - N/A   Overcast
4:15 AM 31.8 °F - 21.2 °F 65% 30.30 in 10.0 mi Calm Calm - N/A   Overcast
4:35 AM 31.8 °F - 21.2 °F 65% 30.29 in 10.0 mi Calm Calm - N/A   Overcast
4:55 AM 31.1 °F 27.7 °F 21.2 °F 67% 30.29 in 10.0 mi NNW 3.5 mph - N/A   Overcast
5:15 AM 31.5 °F - 21.2 °F 66% 30.29 in 10.0 mi Calm Calm - N/A   Overcast
5:35 AM 31.6 °F 28.3 °F 21.0 °F 65% 30.29 in 10.0 mi NNW 3.5 mph - N/A   Overcast
5:55 AM 31.1 °F 27.7 °F 21.6 °F 68% 30.29 in 10.0 mi North 3.5 mph - N/A   Overcast
6:15 AM 31.1 °F 27.7 °F 21.2 °F 67% 30.29 in 10.0 mi North 3.5 mph - N/A   Overcast
6:35 AM 30.9 °F 27.5 °F 21.2 °F 67% 30.29 in 10.0 mi North 3.5 mph - N/A   Overcast
6:55 AM 30.7 °F - 21.2 °F 68% 30.28 in 10.0 mi Calm Calm - N/A   Overcast
7:15 AM 30.6 °F - 20.5 °F 66% 30.29 in 10.0 mi Calm Calm - N/A   Overcast
8:15 AM 30.2 °F - 20.3 °F 67% 30.29 in 10.0 mi Calm Calm - N/A   Overcast
8:35 AM 29.8 °F - 21.6 °F 71% 30.29 in 5.0 mi Calm Calm - N/A   Haze
8:54 AM 29.7 °F - 21.6 °F 72% 30.29 in 10.0 mi Calm Calm - N/A   Overcast
9:14 AM 29.8 °F - 21.9 °F 72% 30.29 in 10.0 mi Calm Calm - N/A   Overcast
9:34 AM 29.8 °F - 22.1 °F 73% 30.29 in 10.0 mi Calm Calm - N/A   Overcast
9:55 AM 30.0 °F - 23.0 °F 75% 30.28 in 7.0 mi Calm Calm - N/A   Overcast
10:15 AM 29.3 °F - 23.4 °F 78% 30.29 in 2.5 mi Calm Calm - N/A Snow Light Snow
10:35 AM 29.3 °F - 24.4 °F 82% 30.29 in 1.8 mi Calm Calm - N/A Snow Light Snow
10:54 AM 29.3 °F - 24.8 °F 83% 30.29 in 1.0 mi Calm Calm - N/A Snow Light Snow
11:15 AM 29.7 °F - 25.3 °F 84% 30.29 in 1.2 mi Calm Calm - N/A Snow Light Snow
11:35 AM 30.0 °F - 25.7 °F 84% 30.28 in 1.0 mi Calm Calm - N/A Snow Light Snow
11:54 AM 29.8 °F - 25.7 °F 85% 30.27 in 1.0 mi Calm Calm - N/A Snow Light Snow
12:15 PM 30.6 °F - 26.6 °F 85% 30.27 in 1.0 mi Calm Calm - N/A Snow Light Snow
12:35 PM 30.4 °F - 26.2 °F 85% 30.25 in 1.0 mi Calm Calm - N/A Snow Light Snow
12:55 PM 30.7 °F - 26.6 °F 85% 30.25 in 1.5 mi Calm Calm - N/A Snow Light Snow
1:14 PM 30.9 °F 27.5 °F 25.9 °F 82% 30.24 in 3.0 mi South 3.5 mph - N/A Snow Light Snow
1:35 PM 30.9 °F 27.5 °F 26.2 °F 83% 30.24 in 1.8 mi South 3.5 mph - N/A Snow Light Snow
1:54 PM 30.9 °F - 25.7 °F 81% 30.23 in 2.0 mi Calm Calm - N/A Snow Light Snow
2:15 PM 31.1 °F - 26.4 °F 83% 30.23 in 1.8 mi Calm Calm - N/A Snow Light Snow
2:34 PM 31.1 °F - 26.6 °F 83% 30.23 in 1.8 mi Calm Calm - N/A Snow Light Snow
3:14 PM 31.1 °F - 27.1 °F 85% 30.22 in 1.0 mi Calm Calm - N/A Snow Light Snow
3:34 PM 31.1 °F 26.4 °F 27.5 °F 87% 30.22 in 1.5 mi South 4.6 mph - N/A Snow Light Snow
3:55 PM 31.1 °F 27.7 °F 27.5 °F 87% 30.22 in 2.0 mi South 3.5 mph - N/A Snow Light Snow
4:35 PM 31.1 °F - 28.0 °F 88% 30.21 in 2.0 mi Calm Calm - N/A Snow Light Snow
4:55 PM 31.1 °F 27.7 °F 28.0 °F 88% 30.20 in 5.0 mi SSE 3.5 mph - N/A   Overcast
5:35 PM 31.5 °F - 28.2 °F 88% 30.20 in 7.0 mi Calm Calm - N/A   Overcast
5:55 PM 31.6 °F - 28.4 °F 88% 30.20 in 7.0 mi Calm Calm - N/A   Overcast
6:15 PM 31.8 °F - 28.0 °F 86% 30.20 in 5.0 mi Calm Calm - N/A Snow Light Snow
6:35 PM 31.6 °F - 28.0 °F 87% 30.20 in 10.0 mi Calm Calm - N/A   Overcast
7:15 PM 31.8 °F - 27.5 °F 84% 30.20 in 10.0 mi Calm Calm - N/A   Overcast
7:35 PM 31.6 °F - 27.5 °F 85% 30.20 in 10.0 mi Calm Calm - N/A   Overcast
7:55 PM 31.6 °F 27.0 °F 27.5 °F 85% 30.20 in 10.0 mi SW 4.6 mph - N/A   Overcast
8:15 PM 31.3 °F - 27.3 °F 85% 30.20 in 10.0 mi Calm Calm - N/A   Overcast
8:35 PM 31.3 °F 26.6 °F 27.5 °F 86% 30.20 in 10.0 mi WSW 4.6 mph - N/A   Overcast
8:55 PM 31.5 °F 25.8 °F 27.1 °F 84% 30.21 in 10.0 mi WSW 5.8 mph - N/A   Overcast
9:15 PM 31.6 °F 27.0 °F 26.6 °F 82% 30.20 in 5.0 mi WSW 4.6 mph - N/A Snow Light Snow
9:35 PM 31.5 °F 26.8 °F 26.6 °F 82% 30.20 in 7.0 mi West 4.6 mph - N/A Snow Light Snow
9:55 PM 31.1 °F 27.7 °F 26.2 °F 82% 30.19 in 7.0 mi WSW 3.5 mph - N/A Snow Light Snow
10:15 PM 30.9 °F 27.5 °F 26.2 °F 83% 30.18 in 10.0 mi SW 3.5 mph - N/A Snow Light Snow
10:35 PM 30.7 °F - 26.2 °F 83% 30.18 in 10.0 mi Calm Calm - N/A   Overcast
10:55 PM 30.9 °F 27.5 °F 26.2 °F 83% 30.18 in 10.0 mi SW 3.5 mph - N/A   Overcast
11:15 PM 31.1 °F 27.7 °F 26.1 °F 82% 30.18 in 10.0 mi WSW 3.5 mph - N/A   Overcast
11:35 PM 30.9 °F 26.2 °F 26.1 °F 82% 30.18 in 10.0 mi WSW 4.6 mph - N/A   Overcast
11:55 PM 31.1 °F 25.4 °F 26.1 °F 82% 30.18 in 10.0 mi WSW 5.8 mph - N/A   Overcast